TimeCST,TemperatureF,Dew PointF,Humidity,Sea Level PressureIn,VisibilityMPH,Wind Direction,Wind SpeedMPH,Gust SpeedMPH,PrecipitationIn,Events,Conditions,WindDirDegrees,DateUTC
12:15 AM,23.0,19.0,85,29.95,10.0,ESE,13.8,-,N/A,,Clear,120,2014-02-17 06:15:00
12:35 AM,23.0,18.9,84,29.94,10.0,ESE,15.0,21.9,N/A,,Clear,110,2014-02-17 06:35:00
12:55 AM,23.5,19.2,84,29.92,10.0,ESE,17.3,-,N/A,,Clear,110,2014-02-17 06:55:00
1:15 AM,23.7,19.4,84,29.92,10.0,ESE,13.8,19.6,N/A,,Scattered Clouds,120,2014-02-17 07:15:00
1:35 AM,23.9,19.4,83,29.91,10.0,ESE,12.7,-,N/A,,Mostly Cloudy,120,2014-02-17 07:35:00
1:55 AM,23.9,19.9,85,29.89,10.0,ESE,16.1,-,N/A,,Overcast,110,2014-02-17 07:55:00
2:15 AM,24.3,20.1,84,29.89,10.0,ESE,12.7,17.3,N/A,,Overcast,120,2014-02-17 08:15:00
2:35 AM,24.3,20.3,85,29.87,10.0,ESE,11.5,18.4,N/A,,Overcast,120,2014-02-17 08:35:00
2:55 AM,24.4,20.3,84,29.87,10.0,ESE,11.5,-,N/A,,Overcast,120,2014-02-17 08:55:00
3:15 AM,24.4,20.7,86,29.85,10.0,ESE,12.7,18.4,N/A,,Overcast,120,2014-02-17 09:15:00
3:35 AM,24.8,21.2,86,29.83,7.0,SE,15.0,20.7,N/A,,Overcast,130,2014-02-17 09:35:00
3:55 AM,25.5,22.5,88,29.83,7.0,ESE,13.8,18.4,N/A,,Overcast,120,2014-02-17 09:55:00
4:15 AM,25.5,22.6,89,29.82,7.0,ESE,13.8,-,N/A,,Overcast,120,2014-02-17 10:15:00
4:35 AM,25.3,22.5,89,29.81,7.0,ESE,12.7,17.3,N/A,,Overcast,120,2014-02-17 10:35:00
4:55 AM,25.3,22.5,89,29.81,7.0,ESE,12.7,-,N/A,,Overcast,110,2014-02-17 10:55:00
5:15 AM,25.2,22.1,88,29.78,7.0,ESE,11.5,-,N/A,,Overcast,110,2014-02-17 11:15:00
5:35 AM,25.2,22.3,89,29.78,5.0,ESE,11.5,-,N/A,,Overcast,120,2014-02-17 11:35:00
5:55 AM,25.9,23.4,90,29.79,5.0,SE,15.0,-,N/A,,Overcast,130,2014-02-17 11:55:00
6:15 AM,26.8,24.6,92,29.80,2.5,SE,10.4,-,0.04,,Overcast,140,2014-02-17 12:15:00
6:35 AM,26.6,24.4,92,29.81,4.0,ESE,6.9,-,0.04,,Overcast,120,2014-02-17 12:35:00
6:55 AM,26.6,24.6,92,29.81,5.0,SSE,4.6,-,0.04,,Overcast,150,2014-02-17 12:55:00
7:15 AM,27.3,25.3,92,29.79,4.0,SSE,6.9,-,N/A,,Overcast,150,2014-02-17 13:15:00
7:35 AM,27.3,25.5,93,29.79,1.2,SSE,5.8,-,0.01,Snow,Light Snow,150,2014-02-17 13:35:00
7:55 AM,27.5,25.7,93,29.82,0.2,SSW,4.6,-,0.03,Snow,Snow,200,2014-02-17 13:55:00
8:15 AM,27.5,26.1,94,29.83,0.2,WSW,3.5,-,0.03,Snow,Snow,240,2014-02-17 14:15:00
8:35 AM,28.0,26.6,94,29.82,1.0,WSW,3.5,-,0.03,Snow,Light Snow,240,2014-02-17 14:35:00
8:55 AM,28.9,27.3,94,29.82,1.5,SW,4.6,-,0.03,Snow,Light Snow,220,2014-02-17 14:55:00
9:15 AM,29.3,27.5,93,29.81,2.0,SW,6.9,-,N/A,Snow,Light Snow,220,2014-02-17 15:15:00
9:35 AM,30.2,28.4,93,29.81,2.5,WSW,6.9,-,N/A,,Overcast,240,2014-02-17 15:35:00
9:55 AM,31.5,29.3,92,29.82,4.0,West,11.5,-,N/A,,Overcast,260,2014-02-17 15:55:00
10:15 AM,32.0,29.3,90,29.81,5.0,West,9.2,-,N/A,,Mostly Cloudy,270,2014-02-17 16:15:00
10:35 AM,33.3,30.0,88,29.81,7.0,West,13.8,18.4,N/A,,Scattered Clouds,280,2014-02-17 16:35:00
10:55 AM,34.2,30.6,87,29.83,7.0,West,13.8,-,N/A,,Scattered Clouds,280,2014-02-17 16:55:00
11:15 AM,35.6,31.1,84,29.83,10.0,West,13.8,18.4,N/A,,Scattered Clouds,280,2014-02-17 17:15:00
11:35 AM,37.0,31.3,80,29.83,10.0,West,18.4,24.2,N/A,,Scattered Clouds,280,2014-02-17 17:35:00
11:55 AM,38.1,31.5,77,29.83,10.0,West,19.6,26.5,0.01,,Clear,280,2014-02-17 17:55:00
12:15 PM,38.7,31.1,74,29.82,10.0,West,19.6,27.6,N/A,,Clear,270,2014-02-17 18:15:00
12:35 PM,39.0,31.1,73,29.81,10.0,West,20.7,26.5,N/A,,Clear,270,2014-02-17 18:35:00
12:55 PM,39.6,30.9,71,29.81,10.0,West,23.0,28.8,N/A,,Clear,270,2014-02-17 18:55:00
1:15 PM,39.7,30.6,70,29.81,10.0,West,19.6,29.9,N/A,,Clear,270,2014-02-17 19:15:00
1:35 PM,40.1,30.4,68,29.81,10.0,West,20.7,24.2,N/A,,Clear,270,2014-02-17 19:35:00
1:55 PM,40.5,30.0,66,29.81,10.0,West,18.4,27.6,N/A,,Clear,260,2014-02-17 19:55:00
2:15 PM,40.6,30.0,66,29.81,10.0,West,17.3,23.0,N/A,,Clear,270,2014-02-17 20:15:00
2:35 PM,41.4,29.5,63,29.82,10.0,West,20.7,26.5,N/A,,Clear,270,2014-02-17 20:35:00
2:55 PM,41.5,29.8,63,29.83,10.0,West,20.7,29.9,N/A,,Clear,270,2014-02-17 20:55:00
3:15 PM,42.1,30.0,62,29.83,10.0,West,19.6,25.3,N/A,,Clear,270,2014-02-17 21:15:00
3:35 PM,42.8,30.2,61,29.84,10.0,West,17.3,23.0,N/A,,Clear,260,2014-02-17 21:35:00
3:55 PM,43.0,29.8,60,29.85,10.0,West,16.1,23.0,N/A,,Clear,260,2014-02-17 21:55:00
4:15 PM,43.3,29.1,57,29.86,10.0,West,15.0,21.9,N/A,,Clear,270,2014-02-17 22:15:00
4:35 PM,43.2,28.9,57,29.87,10.0,WSW,13.8,19.6,N/A,,Clear,250,2014-02-17 22:35:00
4:55 PM,43.2,28.4,56,29.87,10.0,West,15.0,-,N/A,,Clear,260,2014-02-17 22:55:00
5:15 PM,42.6,26.6,53,29.88,10.0,West,15.0,-,N/A,,Clear,260,2014-02-17 23:15:00
5:35 PM,41.4,25.9,54,29.88,10.0,West,11.5,-,N/A,,Clear,260,2014-02-17 23:35:00
5:55 PM,39.6,26.4,59,29.89,10.0,West,10.4,-,N/A,,Clear,260,2014-02-17 23:55:00
6:15 PM,39.2,26.6,61,29.89,10.0,West,9.2,-,N/A,,Clear,260,2014-02-18 00:15:00
6:35 PM,38.5,26.6,62,29.90,10.0,West,8.1,-,N/A,,Clear,260,2014-02-18 00:35:00
6:55 PM,39.0,26.1,60,29.91,10.0,WSW,10.4,-,N/A,,Clear,250,2014-02-18 00:55:00
7:15 PM,38.5,25.7,60,29.91,10.0,WSW,8.1,-,N/A,,Clear,250,2014-02-18 01:15:00
7:35 PM,38.5,25.7,60,29.91,10.0,WSW,8.1,-,N/A,,Clear,250,2014-02-18 01:35:00
7:55 PM,38.7,25.3,59,29.91,10.0,WSW,9.2,-,N/A,,Clear,250,2014-02-18 01:55:00
8:15 PM,39.2,24.8,56,29.91,10.0,WSW,9.2,-,N/A,,Clear,250,2014-02-18 02:15:00
8:35 PM,38.8,25.0,58,29.92,10.0,WSW,9.2,-,N/A,,Clear,240,2014-02-18 02:35:00
8:55 PM,35.8,25.5,66,29.92,10.0,SW,8.1,-,N/A,,Clear,220,2014-02-18 02:55:00
9:15 PM,34.9,25.5,69,29.92,10.0,SW,6.9,-,N/A,,Clear,220,2014-02-18 03:15:00
9:35 PM,34.5,25.3,69,29.92,10.0,SSW,8.1,-,N/A,,Clear,210,2014-02-18 03:35:00
9:55 PM,32.9,25.0,73,29.91,10.0,SSW,6.9,-,N/A,,Clear,200,2014-02-18 03:55:00
10:15 PM,32.9,24.4,71,29.91,10.0,South,6.9,-,N/A,,Clear,190,2014-02-18 04:15:00
10:35 PM,32.9,24.8,72,29.91,10.0,SSW,8.1,-,N/A,,Clear,200,2014-02-18 04:35:00
10:55 PM,33.1,25.2,73,29.91,10.0,SSW,10.4,-,N/A,,Clear,210,2014-02-18 04:55:00
11:15 PM,33.8,25.2,71,29.90,10.0,SSW,9.2,-,N/A,,Clear,200,2014-02-18 05:15:00
11:35 PM,33.3,25.3,73,29.90,10.0,SSW,9.2,-,N/A,,Clear,200,2014-02-18 05:35:00
11:55 PM,33.1,25.2,73,29.89,10.0,South,6.9,-,N/A,,Clear,190,2014-02-18 05:55:00